User: anonymous   Login
Location: Irma
(52.9170°N, 111.2330°W)
Time: 19:32:14
(UTC-06:00)
Language:

deb Chang Zheng 4 - Orbit

View from above orbital plane
View from above orbital plane
View from above satellite
View from above satellite

Ground track
Ground track

The orbit data is extracted from the following two-line orbital elements,

1 20847U 90081K   16238.25671426  .00001962  00000-0  27392-3 0  9996
2 20847  98.5568  97.7718 0016499 294.7095  65.2397 14.78863740362043
Epoch (UTC): 25 August 2016 06:09:40
Eccentricity: 0.0016499
inclination: 98.5568°
perigee height: 621 km
apogee height: 644 km
right ascension of ascending node: 97.7718°
argument of perigee: 294.7095°
revolutions per day: 14.78863740
mean anomaly at epoch: 65.2397°
orbit number at epoch: 36204

The dashed part of the orbit path shows where the satellite is in the earth's shadow,  

DLR